Beaufort MCAS, SC

6:00 AM EDT on April 26, 2017 (GMT -0400)
Beaufort Marine Corps Air Station

Weather History for KNBC - January, 2014

Change the Weather History Date:

Tuesday, January 14, 2014

  Actual Average Record
Temperature  
Mean Temperature 55 °F -  
Max Temperature 66 °F 57 °F 78 °F (1937)
Min Temperature 43 °F 37 °F 20 °F (1969)
Degree Days  
Heating Degree Days 10    
Growing Degree Days 5 (Base 50)    
Moisture  
Dew Point 53 °F    
Average Humidity 87    
Maximum Humidity 97    
Minimum Humidity 50    
Precipitation  
Precipitation 0.47 in - - ()
Sea Level Pressure  
Sea Level Pressure 29.91 in    
Wind  
Wind Speed 6 mph (West)    
Max Wind Speed 13 mph    
Max Gust Speed 22 mph    
Visibility 7 miles    
Events Rain    
Averages and records for this station are not official NWS values.
T = Trace of Precipitation, MM = Missing Value Source: NWS Daily Summary

Daily Weather History Graph

Daily Weather History Graph

Search for Another Location

Airport or City:

Trip Planner

Search our weather history database for the weather conditions in past years. The results will help you decide how hot, cold, wet, or windy it might be!

Date:

Astronomy

Jan. 14, 2014 Rise Set
Actual Time 7:24 AM EST 5:39 PM EST
Civil Twilight 6:58 AM EST 6:05 PM EST
Nautical Twilight 6:28 AM EST 6:36 PM EST
Astronomical Twilight 5:58 AM EST 7:05 PM EST
Moon 4:41 PM EST (1/14) 5:59 AM EST (1/14)
Length of Visible Light 11h 07m
Length of Day
10h 14m
Waxing Gibbous, 98% of the Moon is Illuminated
Jan 14
Waxing Gibbous
Jan 15
Full
Jan 24
Last Quarter
Jan 30
New
Feb 6
First Quarter

Hourly Weather History & Observations

Time (EST) Temp. Windchill Dew Point Humidity Pressure Visibility Wind Dir Wind Speed Gust Speed Precip Events Conditions
12:56 AM 54.0 °F - 52.0 °F 93% 29.96 in 4.0 mi NW 6.9 mph - 0.03 in Rain Rain
1:56 AM 54.0 °F - 53.1 °F 97% 29.92 in 6.0 mi SE 3.5 mph - 0.06 in Rain Light Rain
2:56 AM 55.9 °F - 54.0 °F 93% 29.87 in 10.0 mi Calm Calm - 0.02 in Rain Light Rain
3:35 AM 55.9 °F - 54.0 °F 93% 29.87 in 10.0 mi West 6.9 mph - 0.00 in   Overcast
3:56 AM 55.9 °F - 55.0 °F 97% 29.86 in 9.0 mi NW 4.6 mph - 0.00 in   Overcast
4:06 AM 55.9 °F - 54.0 °F 93% 29.87 in 9.0 mi WNW 4.6 mph - N/A   Overcast
4:18 AM 55.9 °F - 54.0 °F 93% 29.86 in 8.0 mi West 4.6 mph - N/A   Overcast
4:32 AM 55.9 °F - 54.0 °F 93% 29.85 in 7.0 mi West 4.6 mph - N/A   Overcast
4:47 AM 55.9 °F - 54.0 °F 93% 29.84 in 6.0 mi SW 3.5 mph - N/A   Mostly Cloudy
4:56 AM 55.9 °F - 54.0 °F 93% 29.84 in 5.0 mi SSW 4.6 mph - N/A   Overcast
5:56 AM 57.9 °F - 55.9 °F 93% 29.86 in 10.0 mi SSW 8.1 mph - 0.01 in Rain Light Rain
6:56 AM 57.9 °F - 55.9 °F 93% 29.87 in 10.0 mi SW 6.9 mph - 0.01 in Rain Light Rain
7:56 AM 59.0 °F - 57.0 °F 93% 29.86 in 6.0 mi SW 9.2 mph - 0.01 in Rain Light Rain
8:56 AM 59.0 °F - 57.0 °F 93% 29.88 in 6.0 mi SW 10.4 mph - 0.03 in Rain Light Rain
9:56 AM 60.1 °F - 57.9 °F 93% 29.88 in 5.0 mi WSW 9.2 mph - 0.04 in Rain Light Rain
10:03 AM 60.1 °F - 59.0 °F 96% 29.88 in 5.0 mi SW 8.1 mph - 0.00 in Rain Light Rain
10:06 AM 60.1 °F - 59.0 °F 96% 29.89 in 2.0 mi SW 8.1 mph - 0.02 in Rain Rain
10:19 AM 60.1 °F - 57.9 °F 93% 29.88 in 6.0 mi SW 6.9 mph - 0.06 in Rain Light Rain
10:31 AM 60.1 °F - 59.0 °F 96% 29.90 in 1.5 mi WSW 11.5 mph - 0.07 in Rain Light Rain
10:56 AM 61.0 °F - 59.0 °F 93% 29.92 in 1.5 mi SW 10.4 mph - 0.15 in Rain Rain
11:14 AM 61.0 °F - 59.0 °F 93% 29.91 in 2.5 mi West 9.2 mph - 0.05 in Rain Light Rain
11:44 AM 60.1 °F - 57.9 °F 93% 29.91 in 1.5 mi WNW 12.7 mph - 0.08 in Rain Light Rain
11:56 AM 60.1 °F - 57.0 °F 90% 29.91 in 1.0 mi WNW 12.7 mph 21.9 mph 0.10 in Rain Rain
12:15 PM 59.0 °F - 57.0 °F 93% 29.90 in 5.0 mi WNW 9.2 mph - 0.00 in Rain Light Rain
12:32 PM 60.1 °F - 57.9 °F 93% 29.90 in 10.0 mi WNW 5.8 mph - 0.00 in   Overcast
12:56 PM 60.1 °F - 57.0 °F 90% 29.89 in 10.0 mi WNW 6.9 mph - 0.01 in   Overcast
1:03 PM 61.0 °F - 57.9 °F 90% 29.88 in 10.0 mi WNW 4.6 mph - N/A   Overcast
1:56 PM 63.0 °F - 55.9 °F 78% 29.88 in 10.0 mi WNW 10.4 mph - N/A   Mostly Cloudy
2:56 PM 66.0 °F - 52.0 °F 60% 29.90 in 10.0 mi WNW 10.4 mph - N/A   Mostly Cloudy
3:03 PM 66.0 °F - 51.1 °F 59% 29.90 in 10.0 mi NW 8.1 mph - N/A   Partly Cloudy
3:56 PM 66.0 °F - 46.9 °F 50% 29.91 in 10.0 mi WNW 11.5 mph - N/A   Clear
4:56 PM 64.0 °F - 45.0 °F 50% 29.93 in 10.0 mi WNW 8.1 mph - N/A   Clear
5:56 PM 57.9 °F - 45.0 °F 62% 29.94 in 10.0 mi WNW 4.6 mph - N/A   Clear
6:56 PM 52.0 °F - 44.1 °F 74% 29.97 in 10.0 mi Calm Calm - N/A   Clear
7:56 PM 48.0 °F - 44.1 °F 86% 29.99 in 10.0 mi Calm Calm - N/A   Clear
8:56 PM 46.9 °F - 44.1 °F 90% 30.01 in 10.0 mi Calm Calm - N/A   Clear
9:56 PM 46.0 °F - 42.1 °F 86% 30.01 in 10.0 mi Calm Calm - N/A   Clear
10:56 PM 44.1 °F 42.5 °F 39.9 °F 85% 30.02 in 10.0 mi SW 3.5 mph - N/A   Clear
11:56 PM 43.0 °F - 39.9 °F 89% 30.01 in 10.0 mi Calm Calm - N/A   Clear